Terminal Aerodrome Forecast
Issued by NWS Sterling, VA

Current Version | Previous Version | Graphics & Text | Print | Product List | Glossary On
Versions: 1 2 3 4 5 6 7 8 9 10 11 12 13 14 15 16 17 18 19 20 21 22 23 24 25
393
FTUS41 KLWX 210533
TAFDCA
TAF
KDCA 210533Z 2106/2206 17007KT P6SM BKN250
     FM210900 16005KT P6SM BKN060
     FM211200 17006KT P6SM -SHRA OVC040
     FM211500 18007KT P6SM SHRA OVC050
     FM212100 25009KT P6SM -SHRA OVC070
     FM220000 29007KT P6SM BKN050
     FM220200 30010KT P6SM SCT070=

USA.gov is the U.S. government's official web portal to all federal, state and local government web resources and services.